Previsão horária em Abertamy

Hoje, 16 Maio, Domingo

Tempo Temperatura Precipitação Vento Pressão Humidade
00:00 +5°C° 0 mm 2 m/s 677 mmHg 95%
01:00 +4°C° 0 mm 2 m/s 677 mmHg 96%
02:00 +3°C° 0.1 mm 3 m/s 676 mmHg 95%
03:00 +3°C° 0.1 mm 3 m/s 676 mmHg 94%
04:00 +3°C° 0.1 mm 3 m/s 676 mmHg 93%
05:00 +4°C° 0 mm 4 m/s 677 mmHg 93%
06:00 +4°C° 0 mm 4 m/s 677 mmHg 92%
07:00 +4°C° 0 mm 4 m/s 677 mmHg 91%
08:00 +5°C° 0 mm 4 m/s 677 mmHg 83%
09:00 +7°C° 0 mm 4 m/s 677 mmHg 75%
10:00 +8°C° 0 mm 5 m/s 678 mmHg 67%
11:00 +8°C° 0.2 mm 5 m/s 677 mmHg 67%
12:00 +10°C° 0.2 mm 4 m/s 677 mmHg 66%
13:00 +10°C° 0.2 mm 4 m/s 677 mmHg 65%
14:00 +10°C° 0.1 mm 4 m/s 677 mmHg 62%
15:00 +11°C° 0.1 mm 4 m/s 677 mmHg 59%
16:00 +11°C° 0.1 mm 4 m/s 677 mmHg 56%
17:00 +10°C° 0 mm 4 m/s 676 mmHg 62%
18:00 +9°C° 0 mm 3 m/s 676 mmHg 68%
19:00 +8°C° 0 mm 2 m/s 676 mmHg 73%
20:00 +7°C° 0 mm 2 m/s 676 mmHg 79%
21:00 +6°C° 0 mm 2 m/s 676 mmHg 84%
22:00 +5°C° 0 mm 2 m/s 676 mmHg 90%
23:00 +5°C° 0.2 mm 2 m/s 676 mmHg 92%

Amanhã, 17 Maio, Segunda-feira

Tempo Temperatura Precipitação Vento Pressão Humidade
00:00 +5°C° 0.2 mm 2 m/s 675 mmHg 93%
01:00 +6°C° 0.2 mm 2 m/s 675 mmHg 95%
02:00 +6°C° 0.7 mm 2 m/s 675 mmHg 95%
03:00 +4°C° 0.7 mm 3 m/s 675 mmHg 95%
04:00 +4°C° 0.7 mm 3 m/s 676 mmHg 94%
05:00 +4°C° 0.1 mm 4 m/s 676 mmHg 93%
06:00 +4°C° 0.1 mm 4 m/s 676 mmHg 91%
07:00 +4°C° 0.1 mm 4 m/s 677 mmHg 90%
08:00 +4°C° 0.1 mm 4 m/s 677 mmHg 89%
09:00 +5°C° 0.1 mm 4 m/s 677 mmHg 89%
10:00 +5°C° 0.1 mm 4 m/s 677 mmHg 89%
11:00 +5°C° 0.1 mm 4 m/s 678 mmHg 90%
12:00 +5°C° 0.1 mm 4 m/s 678 mmHg 90%
13:00 +5°C° 0.1 mm 4 m/s 678 mmHg 91%
14:00 +5°C° 0.2 mm 4 m/s 678 mmHg 89%
15:00 +6°C° 0.2 mm 5 m/s 679 mmHg 86%
16:00 +7°C° 0.2 mm 5 m/s 679 mmHg 84%
17:00 +6°C° 0.1 mm 5 m/s 679 mmHg 85%
18:00 +6°C° 0.1 mm 5 m/s 679 mmHg 86%
19:00 +5°C° 0.1 mm 5 m/s 679 mmHg 87%
20:00 +5°C° 0 mm 5 m/s 679 mmHg 88%
21:00 +3°C° 0 mm 5 m/s 679 mmHg 90%
22:00 +3°C° 0 mm 5 m/s 680 mmHg 92%
23:00 +3°C° 0.1 mm 5 m/s 680 mmHg 91%

Depois de amanhã, 18 Maio, Terça-feira

Tempo Temperatura Precipitação Vento Pressão Humidade
00:00 +3°C° 0.1 mm 5 m/s 680 mmHg 90%
01:00 +5°C° 0.1 mm 5 m/s 680 mmHg 90%
02:00 +3°C° 0.1 mm 5 m/s 680 mmHg 91%
03:00 +4°C° 0.1 mm 4 m/s 680 mmHg 92%
04:00 +4°C° 0.1 mm 4 m/s 680 mmHg 92%
05:00 +4°C° 0.1 mm 4 m/s 680 mmHg 92%
06:00 +4°C° 0.1 mm 4 m/s 681 mmHg 92%
07:00 +4°C° 0.1 mm 4 m/s 681 mmHg 92%
08:00 +5°C° 0.2 mm 4 m/s 681 mmHg 92%
09:00 +5°C° 0.2 mm 4 m/s 681 mmHg 91%
10:00 +5°C° 0.2 mm 4 m/s 682 mmHg 91%
11:00 +6°C° 0.1 mm 4 m/s 682 mmHg 85%
12:00 +7°C° 0.1 mm 5 m/s 682 mmHg 79%
13:00 +8°C° 0.1 mm 5 m/s 682 mmHg 73%
14:00 +7°C° 0.2 mm 5 m/s 682 mmHg 77%
15:00 +6°C° 0.2 mm 5 m/s 682 mmHg 82%
16:00 +5°C° 0.2 mm 5 m/s 682 mmHg 87%
17:00 +5°C° 0.1 mm 4 m/s 682 mmHg 88%
18:00 +5°C° 0.1 mm 4 m/s 682 mmHg 89%
19:00 +4°C° 0.1 mm 4 m/s 682 mmHg 90%
20:00 +4°C° 0 mm 4 m/s 682 mmHg 91%
21:00 +3°C° 0 mm 4 m/s 683 mmHg 92%
22:00 +3°C° 0 mm 4 m/s 683 mmHg 93%
23:00 +3°C° 0.1 mm 3 m/s 683 mmHg 93%

19 Maio, Quarta-feira

Tempo Temperatura Precipitação Vento Pressão Humidade
00:00 +3°C° 0.1 mm 3 m/s 683 mmHg 93%
01:00 +3°C° 0.1 mm 3 m/s 683 mmHg 92%
02:00 +3°C° 0.1 mm 3 m/s 683 mmHg 92%
03:00 +3°C° 0.1 mm 3 m/s 683 mmHg 91%
04:00 +3°C° 0.1 mm 3 m/s 683 mmHg 91%
05:00 +5°C° 0.3 mm 3 m/s 684 mmHg 78%
06:00 +4°C° 0.3 mm 3 m/s 684 mmHg 86%
07:00 +3°C° 0.3 mm 3 m/s 685 mmHg 94%
08:00 +4°C° 0 mm 3 m/s 684 mmHg 80%
09:00 +5°C° 0 mm 3 m/s 684 mmHg 75%
10:00 +7°C° 0 mm 3 m/s 684 mmHg 70%
11:00 +6°C° 0.2 mm 4 m/s 685 mmHg 75%
12:00 +7°C° 0.2 mm 4 m/s 685 mmHg 73%
13:00 +7°C° 0.2 mm 4 m/s 685 mmHg 72%
14:00 +4°C° 0.4 mm 3 m/s 684 mmHg 86%
15:00 +7°C° 0.4 mm 3 m/s 684 mmHg 79%
16:00 +9°C° 0.4 mm 3 m/s 683 mmHg 71%
17:00 +8°C° 0.3 mm 3 m/s 683 mmHg 76%
18:00 +7°C° 0.3 mm 2 m/s 683 mmHg 82%
19:00 +6°C° 0.3 mm 2 m/s 683 mmHg 87%
20:00 +6°C° 0 mm 1 m/s 683 mmHg 89%
21:00 +5°C° 0 mm 1 m/s 684 mmHg 91%
22:00 +4°C° 0 mm 1 m/s 684 mmHg 93%
23:00 +3°C° 0 mm 1 m/s 684 mmHg 94%

20 Maio, Quinta-feira

Tempo Temperatura Precipitação Vento Pressão Humidade
00:00 +3°C° 0 mm 1 m/s 684 mmHg 94%
01:00 +3°C° 0 mm 1 m/s 684 mmHg 95%
02:00 +3°C° 0 mm 1 m/s 684 mmHg 95%
03:00 +3°C° 0 mm 1 m/s 684 mmHg 96%
04:00 +3°C° 0 mm 1 m/s 685 mmHg 96%
05:00 +3°C° 0 mm 2 m/s 685 mmHg 94%
06:00 +4°C° 0 mm 2 m/s 685 mmHg 92%
07:00 +4°C° 0 mm 3 m/s 686 mmHg 90%
08:00 +4°C° 0.2 mm 3 m/s 686 mmHg 88%
09:00 +5°C° 0.2 mm 3 m/s 686 mmHg 86%
10:00 +5°C° 0.2 mm 4 m/s 687 mmHg 83%
11:00 +6°C° 0.2 mm 4 m/s 687 mmHg 80%
12:00 +6°C° 0.2 mm 4 m/s 687 mmHg 78%
13:00 +6°C° 0.2 mm 4 m/s 687 mmHg 75%
14:00 +7°C° 0.2 mm 4 m/s 687 mmHg 73%
15:00 +7°C° 0.2 mm 4 m/s 687 mmHg 71%
16:00 +7°C° 0.2 mm 5 m/s 687 mmHg 70%
17:00 +6°C° 0.3 mm 4 m/s 687 mmHg 76%
18:00 +7°C° 0.3 mm 3 m/s 687 mmHg 81%
19:00 +5°C° 0.3 mm 3 m/s 687 mmHg 87%
20:00 +5°C° 0.1 mm 2 m/s 687 mmHg 90%
21:00 +4°C° 0.1 mm 2 m/s 687 mmHg 93%
22:00 +4°C° 0.1 mm 1 m/s 687 mmHg 96%
23:00 +4°C° 0 mm 1 m/s 687 mmHg 95%

21 Maio, Sexta-feira

Tempo Temperatura Precipitação Vento Pressão Humidade
00:00 +4°C° 0 mm 1 m/s 687 mmHg 95%
01:00 +4°C° 0 mm 1 m/s 687 mmHg 95%
02:00 +3°C° 0 mm 1 m/s 687 mmHg 95%
03:00 +3°C° 0 mm 1 m/s 687 mmHg 96%
04:00 +1°C° 0 mm 2 m/s 686 mmHg 96%
05:00 +2°C° 0 mm 2 m/s 686 mmHg 93%
06:00 +3°C° 0 mm 2 m/s 686 mmHg 91%
07:00 +4°C° 0 mm 2 m/s 686 mmHg 88%
08:00 +5°C° 0 mm 3 m/s 686 mmHg 82%
09:00 +7°C° 0 mm 3 m/s 686 mmHg 75%
10:00 +7°C° 0 mm 4 m/s 686 mmHg 69%
11:00 +8°C° 0.2 mm 4 m/s 686 mmHg 66%
12:00 +10°C° 0.2 mm 4 m/s 685 mmHg 64%
13:00 +11°C° 0.2 mm 4 m/s 685 mmHg 62%
14:00 +10°C° 0.3 mm 4 m/s 685 mmHg 67%
15:00 +9°C° 0.3 mm 3 m/s 684 mmHg 72%
16:00 +8°C° 0.3 mm 3 m/s 684 mmHg 77%
17:00 +8°C° 0 mm 2 m/s 684 mmHg 79%
18:00 +7°C° 0 mm 2 m/s 684 mmHg 80%
19:00 +7°C° 0 mm 2 m/s 683 mmHg 82%
20:00 +6°C° 0 mm 2 m/s 683 mmHg 84%
21:00 +6°C° 0 mm 2 m/s 683 mmHg 87%
22:00 +5°C° 0 mm 2 m/s 683 mmHg 89%
23:00 +5°C° 0 mm 2 m/s 683 mmHg 89%
Mostrar mais

Necessitamos do seu Consentimento

A Meteoprog e os seus Fornecedores de Serviços podem armazenar e aceder a dados pessoais como cookies, identificadores do dispositivo ou outras tecnologias semelhantes existentes no seu dispositivo e processar estes dados para personalizar conteúdos e anúncios, assim como funcionalidades nas redes sociais e análise de tráfego.

  • Armazenar e/ou aceder a informações no seu dispositivo

    Os cookies, identificadores do dispositivo ou outras informações podem ser armazenados ou acedidos no seu dispositivo, para os fins acima indicados.

  • Anúncios e conteúdos personalizados, medição de anúncios e conteúdos, dados sobre o público-alvo e desenvolvimento de produtos

    Os anúncios e os conteúdos podem ser personalizados com base num perfil. Podem ser adicionados dados adicionais para uma maior personalização dos anúncios e dos conteúdos. A eficácia dos anúncios e dos conteúdos pode ser medida. Podem ser obtidas informações sobre o público que visualizou os anúncios e os conteúdos. Estes dados podem ser usados para desenvolver ou melhorar sistemas, softwares ou a experiência do utilizador.

Ao clicar em "Eu concordo”, permitirá o uso de cookies, identificadores do dispositivo e web beacons mencionados ou outras tecnologias semelhantes. As configurações do navegador do seu dispositivo podem ser alteradas.

Para certos fins, podem ser invocados interesses legítimos ao invés de consentimento. Pode ler mais informação sobre este assunto na nossa Política de Privacidade e Cookies.